Wind_Speed
24 24 24 23 22 22 22 22 22 21 21 20 19 18 18 18 19 19 18 19 19 19 20 20 20 19 18 19 19 19 20 20 19 19 19 18 18 18 18 19 19 19 19 20
24 24 24 24 24 23 23 23 23 22 23 23 23 22 21 20 20 20 20 21 21 22 22 23 23 21 20 20 21 21 21 21 20 20 20 21 20 20 21 21 21 21 21 21
25 25 25 26 25 25 25 24 24 23 24 24 25 25 24 23 22 23 23 23 23 23 24 24 24 24 23 22 22 22 21 21 22 22 21 22 22 23 23 23 23 23 23 24
27 27 28 26 25 26 27 27 26 25 25 26 26 27 26 26 26 25 25 25 26 26 25 25 26 26 26 25 25 24 24 23 24 24 24 24 24 24 24 24 24 24 25 25
27 28 28 27 27 27 27 27 27 27 27 27 28 28 28 28 28 28 28 28 27 27 27 27 27 28 28 28 27 27 26 26 26 26 26 27 27 27 26 26 27 27 27 27
28 28 29 28 28 28 28 28 28 28 29 29 29 29 29 30 30 30 30 29 29 29 29 28 29 30 30 30 30 29 28 29 29 29 29 29 29 29 29 29 29 29 29 30
29 29 29 29 29 29 30 30 30 30 30 30 30 30 31 31 31 30 30 30 30 30 30 31 31 31 32 32 31 30 29 30 31 31 31 31 31 31 31 31 31 31 31 31
30 30 31 30 31 31 31 31 31 31 31 31 31 31 32 32 32 31 31 31 31 31 31 32 33 33 33 32 32 31 31 32 32 32 32 33 33 33 33 33 33 32 32 32
31 31 31 31 32 32 32 32 32 33 32 32 32 32 32 32 33 33 33 33 33 33 33 33 34 34 34 33 33 34 33 35 35 34 34 35 35 34 34 34 34 33 33 33
32 32 32 32 33 34 34 34 33 33 33 34 33 33 33 33 33 34 34 34 34 34 35 35 35 34 35 35 35 35 36 36 36 35 35 35 35 35 35 34 34 34 34 34
32 32 33 34 35 35 35 35 35 35 34 34 34 34 34 34 33 33 33 35 35 34 35 34 34 34 34 34 35 36 36 35 34 34 34 35 35 35 35 35 35 35 35 35
30 31 33 34 34 34 34 34 35 35 36 35 35 35 35 36 35 34 34 34 34 34 34 33 33 33 34 34 35 35 35 34 33 32 33 33 34 34 35 35 35 35 35 35
30 31 31 31 32 33 33 33 34 35 35 36 36 36 36 36 35 35 35 35 35 34 34 34 33 34 35 35 34 34 33 33 32 32 33 33 34 34 35 35 35 35 35 36
30 31 31 31 32 32 33 34 34 35 35 35 35 35 35 35 35 35 35 35 35 34 35 35 34 34 35 34 33 33 32 31 31 32 33 33 33 34 34 34 35 35 35 36
30 31 31 31 32 32 32 33 34 34 35 34 34 34 34 34 34 34 35 34 34 34 34 34 35 35 34 33 32 32 30 30 30 31 32 32 32 33 34 34 34 35 35 35
29 29 30 30 31 31 31 31 31 32 32 32 33 32 32 33 33 33 33 33 33 33 33 34 34 33 33 33 33 32 30 30 30 30 31 32 33 33 33 33 33 33 34 35
27 27 28 28 29 29 30 30 29 29 29 30 30 31 31 31 31 32 32 32 33 33 33 33 33 32 33 33 33 32 33 31 31 32 32 32 31 32 32 33 33 34 35 34
25 26 26 26 26 27 28 28 28 28 28 28 29 29 30 30 30 31 31 32 32 32 31 31 31 31 32 33 33 33 32 32 32 32 32 31 32 32 32 32 32 33 33 32
24 24 25 26 26 26 26 25 26 27 27 27 28 28 28 28 28 29 30 31 31 31 31 31 30 30 31 31 32 31 31 31 31 31 31 30 29 30 31 32 32 32 31 31
22 23 24 24 24 24 24 24 25 25 26 26 27 27 28 28 28 28 28 28 29 29 29 30 30 30 30 29 30 30 30 30 30 30 30 29 29 29 29 30 30 29 29 29
22 22 23 23 23 23 23 24 25 25 25 26 26 27 27 27 27 27 26 27 27 27 27 28 29 29 29 29 28 29 29 29 29 28 29 28 28 29 28 28 28 27 28 27
21 21 21 21 21 22 22 22 23 23 24 24 24 24 25 25 25 26 26 26 25 25 26 26 26 27 27 28 28 28 28 29 29 28 28 28 28 28 28 27 26 27 27 26
20 20 20 20 20 21 21 21 21 22 22 22 22 22 23 24 24 24 24 24 24 24 24 24 24 24 25 26 27 28 28 28 28 28 28 28 29 28 28 28 27 27 27 26
18 19 19 19 20 20 20 20 20 20 20 20 20 21 21 21 21 21 21 22 23 23 23 23 23 24 24 24 24 25 25 25 26 26 26 27 27 27 27 27 27 27 25 25
18 18 18 18 18 19 19 19 19 19 18 18 18 18 18 18 18 18 19 19 20 20 20 21 21 22 23 23 23 23 24 24 24 24 25 25 25 25 24 24 24 24 23 23
18 18 18 17 17 17 17 17 16 16 17 17 17 16 16 16 16 17 18 18 19 19 20 20 20 21 22 22 22 23 23 23 23 23 23 22 22 22 23 23 24 24 23 23
17 17 16 17 17 17 17 16 16 16 16 16 16 16 16 16 17 17 17 17 17 18 19 19 19 19 19 20 21 21 21 21 21 22 22 22 22 23 23 23 23 23 24 24
Wind_Direction
248 248 245 244 245 247 250 255 260 261 261 263 264 267 268 267 268 268 267 267 268 271 274 273 269 270 270 271 273 274 275 275 276 277 279 280 280 282 282 283 285 285 285 284
248 247 244 242 244 248 253 258 262 263 261 262 262 262 264 265 266 267 268 269 271 273 276 277 273 271 271 271 272 275 274 273 275 278 280 281 282 282 283 284 284 284 285 284
249 247 247 245 245 249 253 256 260 262 263 263 263 262 262 264 266 269 270 271 272 273 273 276 275 273 271 271 273 277 276 275 277 279 280 281 282 282 283 283 283 283 283 283
249 248 248 250 249 251 254 255 258 262 265 266 266 263 263 264 266 268 271 273 273 272 272 273 274 274 272 272 273 276 276 276 277 277 278 279 280 282 282 282 282 282 283 284
252 251 251 250 252 254 256 259 262 264 267 269 267 264 263 264 266 267 270 273 273 270 270 272 274 275 274 274 273 274 273 273 273 274 276 278 279 279 279 279 280 281 283 284
253 253 252 252 254 257 259 260 263 265 267 268 268 265 264 265 267 268 268 270 272 271 270 272 274 274 275 276 273 271 270 270 271 273 275 276 277 276 277 277 278 279 281 282
256 256 255 255 257 259 261 264 265 266 266 268 267 267 266 265 266 267 267 268 270 271 272 273 273 274 274 276 273 271 270 270 272 274 275 275 276 277 277 279 278 280 282 282
255 257 258 258 260 262 264 265 266 266 266 267 267 267 266 265 265 265 265 266 269 271 273 275 274 273 274 275 273 271 270 271 273 274 275 275 276 277 278 279 280 282 283 283
255 258 259 260 262 263 265 267 267 266 266 266 267 267 267 268 267 266 266 268 269 271 273 274 275 274 274 274 272 272 273 273 273 274 275 275 276 276 277 278 280 282 283 283
257 258 260 261 262 263 266 267 268 269 268 267 268 268 268 268 268 268 268 269 271 273 273 273 273 273 273 273 273 274 274 274 274 274 275 274 276 276 276 278 279 281 282 282
259 260 261 262 264 264 265 266 267 268 268 268 268 269 269 269 270 269 268 269 269 271 273 272 272 271 273 276 277 277 277 276 275 274 274 275 276 277 278 278 279 279 280 281
262 262 263 264 264 264 265 265 267 268 268 269 270 271 271 270 270 270 269 269 270 272 273 272 272 272 274 276 277 277 277 276 276 276 276 277 278 278 278 279 280 279 279 279
263 263 265 265 265 265 265 267 267 268 269 270 271 272 271 270 270 270 270 270 271 271 272 272 271 272 274 276 276 276 275 274 274 275 276 277 278 279 279 279 280 281 279 278
263 264 266 266 266 267 268 269 269 269 269 270 270 271 271 270 270 270 270 271 271 271 272 272 271 272 274 274 274 274 274 274 275 276 277 279 279 280 280 279 279 281 280 279
263 263 265 267 268 269 270 270 269 269 270 271 272 273 272 272 272 273 272 272 271 271 272 273 272 273 274 273 273 273 272 273 275 277 278 280 281 281 282 281 281 281 280 279
267 267 268 270 270 270 271 272 273 272 272 273 274 274 274 274 274 274 275 274 272 272 273 273 272 273 274 274 273 271 272 275 276 277 280 282 283 283 283 283 282 281 282 282
269 270 271 272 273 274 274 275 276 276 275 274 274 275 275 274 273 273 273 273 271 271 271 272 272 272 273 273 274 274 274 275 277 279 281 282 283 284 284 284 283 282 284 282
270 270 272 273 275 276 277 277 277 277 276 275 275 276 275 274 274 275 273 272 270 269 270 270 271 273 274 273 273 274 275 276 277 277 279 282 282 282 282 284 286 287 285 283
272 272 274 275 276 277 277 278 277 277 276 275 275 275 276 276 277 277 275 273 271 270 270 270 271 274 276 276 275 274 275 276 276 278 279 281 281 281 282 285 286 288 287 286
272 274 275 276 276 277 278 278 279 279 280 278 277 277 277 277 278 278 278 277 275 274 272 271 273 275 274 275 274 273 274 276 277 278 279 280 280 281 283 284 286 288 288 288
272 274 276 276 277 278 279 279 280 281 282 282 280 279 279 279 280 279 279 279 278 277 276 275 274 274 272 273 275 275 275 276 277 277 278 278 279 282 282 283 285 287 287 288
274 276 278 278 279 280 280 281 282 282 282 282 282 281 282 282 283 282 280 281 280 280 279 278 276 275 274 273 274 275 275 276 275 275 277 277 278 280 279 279 282 285 287 287
276 278 278 279 280 281 281 282 283 283 283 283 282 283 284 285 284 283 282 282 282 282 281 279 277 276 277 278 277 276 276 277 276 275 276 277 278 278 277 277 280 282 284 284
277 278 278 279 281 282 283 283 284 285 286 284 284 284 285 287 286 285 284 283 284 285 284 282 280 279 279 280 278 276 277 278 278 277 278 280 280 278 277 277 278 280 280 281
278 280 281 281 282 284 286 287 289 289 288 288 287 287 289 291 291 290 290 289 289 288 286 284 283 282 279 278 277 279 280 281 281 281 283 282 280 279 278 277 277 279 280 282
278 280 282 282 282 285 287 286 288 290 293 292 290 289 289 290 291 292 292 292 290 289 289 289 288 286 286 283 280 280 281 282 283 281 282 283 281 282 282 282 281 281 282 284
276 279 281 283 283 284 285 284 285 290 293 293 288 285 286 287 288 290 291 292 293 292 289 288 288 289 289 288 286 283 282 282 282 281 281 282 283 284 285 285 285 284 283 284
Height
5856 5858 5859 5861 5863 5864 5866 5867 5868 5870 5872 5873 5874 5874 5874 5875 5875 5875 5875 5875 5875 5875 5875 5875 5874 5873 5873 5872 5871 5870 5870 5869 5868 5868 5867 5866 5865 5864 5863 5862 5861 5860 5858 5857
5849 5851 5853 5855 5857 5859 5860 5862 5863 5864 5866 5867 5868 5868 5869 5870 5870 5870 5870 5870 5869 5869 5869 5869 5868 5868 5867 5866 5865 5865 5864 5863 5862 5862 5861 5860 5859 5858 5857 5856 5855 5854 5852 5851
5844 5845 5847 5849 5851 5853 5854 5856 5857 5857 5859 5860 5861 5862 5863 5863 5864 5864 5864 5864 5863 5863 5863 5862 5861 5861 5861 5860 5859 5858 5857 5856 5856 5855 5854 5854 5853 5851 5850 5849 5848 5847 5846 5844
5837 5839 5840 5845 5845 5847 5848 5849 5850 5851 5852 5853 5854 5855 5856 5856 5857 5857 5857 5857 5856 5856 5855 5855 5854 5853 5853 5852 5851 5851 5850 5849 5848 5847 5847 5846 5845 5844 5843 5841 5840 5839 5838 5837
5830 5832 5834 5837 5838 5840 5841 5842 5843 5844 5845 5845 5846 5847 5848 5848 5849 5849 5849 5849 5848 5848 5847 5847 5846 5845 5844 5844 5843 5842 5841 5841 5840 5840 5839 5838 5837 5836 5835 5833 5832 5831 5830 5829
5824 5825 5827 5831 5831 5832 5835 5835 5836 5837 5837 5838 5838 5839 5840 5840 5840 5840 5840 5840 5840 5839 5839 5838 5837 5836 5836 5835 5834 5833 5832 5832 5831 5831 5830 5829 5828 5827 5826 5825 5824 5823 5822 5821
5816 5817 5819 5822 5824 5825 5827 5829 5829 5829 5829 5830 5830 5831 5831 5831 5831 5831 5832 5831 5831 5830 5830 5829 5828 5827 5827 5826 5825 5824 5822 5822 5822 5821 5821 5820 5819 5818 5817 5816 5815 5814 5812 5812
5809 5810 5814 5815 5816 5817 5818 5819 5819 5820 5820 5820 5821 5821 5821 5821 5822 5822 5822 5822 5822 5822 5821 5820 5819 5818 5817 5817 5816 5815 5814 5813 5812 5812 5811 5810 5809 5808 5807 5806 5805 5804 5803 5802
5802 5805 5805 5806 5807 5808 5809 5810 5810 5810 5811 5811 5811 5811 5811 5812 5812 5812 5812 5812 5812 5812 5811 5811 5809 5808 5808 5807 5806 5805 5804 5803 5802 5801 5801 5800 5798 5798 5797 5796 5795 5794 5793 5792
5794 5795 5796 5797 5798 5799 5800 5800 5801 5801 5801 5801 5801 5801 5801 5802 5802 5802 5802 5802 5802 5801 5801 5800 5799 5798 5797 5797 5796 5795 5794 5793 5792 5791 5790 5789 5788 5787 5787 5786 5785 5784 5783 5782
5785 5787 5787 5788 5788 5789 5790 5790 5790 5791 5791 5791 5791 5791 5791 5791 5792 5791 5791 5791 5791 5790 5790 5789 5789 5788 5787 5786 5785 5784 5783 5782 5781 5780 5780 5779 5778 5777 5776 5775 5774 5774 5773 5772
5776 5777 5777 5778 5779 5779 5779 5780 5780 5780 5780 5780 5781 5781 5781 5781 5781 5781 5781 5780 5780 5779 5779 5778 5778 5778 5777 5776 5775 5774 5773 5772 5771 5770 5769 5768 5767 5766 5765 5764 5763 5762 5761 5761
5767 5767 5768 5768 5768 5769 5769 5769 5770 5770 5770 5770 5770 5770 5770 5770 5770 5770 5770 5769 5769 5769 5768 5768 5767 5767 5766 5765 5764 5763 5762 5761 5760 5760 5759 5758 5757 5755 5754 5754 5753 5751 5750 5749
5758 5758 5758 5759 5759 5759 5759 5759 5759 5759 5759 5759 5759 5759 5758 5758 5759 5758 5758 5758 5757 5757 5757 5757 5756 5756 5756 5755 5754 5753 5752 5751 5750 5750 5749 5748 5747 5745 5744 5743 5742 5741 5740 5739
5749 5749 5749 5750 5750 5750 5749 5749 5749 5749 5749 5748 5748 5748 5748 5747 5747 5747 5747 5746 5745 5746 5746 5746 5746 5746 5745 5744 5744 5743 5742 5742 5741 5740 5739 5738 5737 5735 5734 5733 5731 5730 5729 5728
5741 5741 5741 5741 5741 5740 5740 5739 5739 5739 5738 5738 5738 5737 5737 5737 5736 5736 5736 5735 5735 5735 5735 5735 5735 5736 5735 5735 5735 5734 5733 5733 5732 5731 5730 5729 5727 5726 5724 5723 5722 5720 5719 5718
5733 5733 5732 5732 5732 5731 5730 5730 5729 5729 5728 5728 5728 5727 5727 5726 5726 5726 5725 5725 5724 5724 5724 5725 5725 5725 5725 5725 5725 5725 5725 5724 5723 5722 5721 5720 5718 5717 5715 5714 5712 5710 5709 5708
5725 5725 5724 5724 5723 5722 5721 5721 5720 5720 5719 5719 5718 5718 5717 5717 5716 5716 5715 5714 5714 5714 5714 5715 5715 5715 5715 5715 5715 5716 5715 5714 5714 5713 5712 5711 5710 5708 5707 5705 5703 5701 5699 5698
5718 5717 5716 5716 5715 5714 5714 5713 5712 5711 5710 5710 5709 5709 5708 5708 5707 5706 5705 5704 5704 5704 5705 5705 5705 5705 5706 5706 5706 5706 5705 5705 5705 5704 5703 5702 5701 5699 5698 5696 5695 5693 5691 5689
5711 5710 5709 5708 5708 5707 5706 5705 5704 5703 5702 5701 5700 5700 5699 5699 5698 5697 5695 5695 5695 5695 5695 5695 5695 5696 5696 5696 5696 5696 5696 5696 5695 5695 5694 5693 5692 5691 5689 5688 5687 5685 5683 5681
5705 5704 5703 5702 5701 5700 5699 5698 5696 5695 5694 5693 5692 5691 5691 5690 5689 5688 5687 5687 5687 5686 5686 5686 5686 5686 5687 5687 5687 5687 5688 5687 5687 5686 5685 5685 5684 5683 5682 5680 5678 5677 5675 5674
5699 5698 5697 5696 5694 5693 5692 5691 5689 5688 5687 5686 5684 5683 5682 5682 5681 5680 5679 5679 5679 5678 5677 5677 5677 5678 5678 5678 5678 5678 5679 5678 5678 5678 5677 5676 5676 5675 5674 5672 5671 5669 5668 5667
5693 5692 5691 5690 5688 5687 5686 5685 5683 5682 5680 5679 5678 5677 5676 5675 5673 5673 5672 5672 5671 5671 5670 5670 5670 5670 5670 5670 5670 5670 5670 5670 5670 5669 5669 5668 5667 5666 5665 5664 5663 5662 5661 5659
5687 5686 5685 5684 5683 5682 5681 5679 5677 5676 5674 5673 5671 5670 5669 5668 5667 5666 5666 5665 5664 5664 5663 5663 5663 5663 5663 5663 5663 5663 5662 5662 5662 5661 5661 5660 5658 5657 5657 5656 5655 5655 5653 5652
5682 5681 5680 5679 5678 5677 5675 5674 5672 5670 5668 5667 5666 5664 5663 5662 5662 5661 5660 5659 5659 5658 5657 5656 5656 5655 5655 5655 5655 5655 5655 5655 5654 5654 5653 5652 5651 5650 5649 5648 5648 5647 5646 5645
5676 5676 5675 5674 5673 5672 5671 5669 5667 5665 5663 5662 5661 5660 5659 5658 5657 5656 5655 5655 5654 5653 5652 5651 5650 5649 5649 5648 5648 5648 5648 5648 5647 5647 5647 5646 5645 5643 5643 5642 5641 5640 5639 5638
5671 5670 5669 5668 5667 5666 5665 5664 5663 5661 5659 5657 5656 5655 5654 5654 5653 5652 5651 5650 5649 5648 5647 5646 5645 5644 5643 5642 5642 5641 5641 5641 5641 5641 5640 5639 5638 5637 5636 5635 5634 5633 5631 5630